D3121 Weather Reports


Display with metric or nautical units.
time (UTC)temp
F
wind
direction
speed
MPH
gust
MPH
rain 1hr
in
rain 24hr
in
rain mn
in
humidity
%
barometer
mb
20260505001116 59 0.0 0.0 0.00 0.00 0.00 53 1006.4
20260505000116 60 0.0 0.0 0.00 0.00 0.00 50 1006.2
20260504235116 61 0.0 0.0 0.00 0.00 0.00 48 1006.0
20260504234116 62 0.0 0.0 0.00 0.00 0.00 47 1006.0
20260504233116 63 315 1.0 2.0 0.00 0.00 0.00 44 1005.9
20260504232116 64 0.0 0.0 0.00 0.00 0.00 44 1005.8
20260504231116 64 315 1.0 2.0 0.00 0.00 0.00 43 1005.6
20260504230116 64 293 2.0 5.0 0.00 0.00 0.00 42 1005.4
20260504225116 65 45 1.0 3.0 0.00 0.00 0.00 42 1005.4
20260504224136 65 338 2.0 4.0 0.00 0.00 0.00 42 1005.4
20260504223136 65 270 3.0 6.0 0.00 0.00 0.00 40 1005.3
20260504222136 65 203 1.0 2.0 0.00 0.00 0.00 40 1005.2
20260504221116 66 0 4.0 5.0 0.00 0.00 0.00 40 1005.0
20260504220116 66 45 3.0 5.0 0.00 0.00 0.00 40 1005.0
20260504215116 66 293 3.0 6.0 0.00 0.00 0.00 39 1005.1
20260504214116 66 23 2.0 3.0 0.00 0.00 0.00 39 1005.2
20260504213136 66 293 3.0 6.0 0.00 0.00 0.00 40 1005.3
20260504212116 66 315 3.0 6.0 0.00 0.00 0.00 39 1005.4
20260504211136 66 338 3.0 5.0 0.00 0.00 0.00 39 1005.3
20260504210116 66 293 3.0 4.0 0.00 0.00 0.00 39 1005.4
20260504205116 66 338 4.0 7.0 0.00 0.00 0.00 41 1005.4
20260504204116 66 0 4.0 7.0 0.00 0.00 0.00 39 1005.4
20260504203116 66 225 2.0 4.0 0.00 0.00 0.00 41 1005.4
20260504202136 65 45 5.0 8.0 0.00 0.00 0.00 41 1005.4
20260504201116 65 338 3.0 5.0 0.00 0.00 0.00 41 1005.4
20260504200116 65 270 3.0 6.0 0.00 0.00 0.00 41 1005.5
20260504195116 65 0 4.0 7.0 0.00 0.00 0.00 41 1005.7
20260504194116 65 293 4.0 7.0 0.00 0.00 0.00 41 1005.6
20260504193116 65 203 3.0 8.0 0.00 0.00 0.00 41 1005.6
20260504192136 65 0 4.0 7.0 0.00 0.00 0.00 41 1005.6
20260504191116 65 23 4.0 8.0 0.00 0.00 0.00 41 1005.7
20260504190116 65 338 7.0 13.0 0.00 0.00 0.00 41 1005.7
20260504185136 65 315 4.0 9.0 0.00 0.00 0.00 41 1005.7
20260504184116 65 315 3.0 6.0 0.00 0.00 0.00 43 1006.0
20260504183116 64 315 5.0 10.0 0.00 0.00 0.00 43 1005.7
20260504182116 63 338 5.0 10.0 0.00 0.00 0.00 43 1005.6
20260504181116 63 315 3.0 6.0 0.00 0.00 0.00 44 1005.7
20260504180116 63 338 5.0 7.0 0.00 0.00 0.00 45 1005.8
20260504175136 62 338 3.0 5.0 0.00 0.00 0.00 46 1005.8
20260504174116 62 315 4.0 6.0 0.00 0.00 0.00 45 1006.1
20260504172116 62 225 3.0 6.0 0.00 0.00 0.00 46 1006.1
20260504171116 62 225 4.0 11.0 0.00 0.00 0.00 45 1006.0
20260504170116 62 0 3.0 4.0 0.00 0.00 0.00 46 1006.1
20260504160117 59 270 2.0 4.0 0.00 0.00 0.00 48 1006.7
20260504151116 59 338 4.0 7.0 0.00 0.00 0.00 48 1006.8
20260504150116 59 23 2.0 4.0 0.00 0.00 0.00 48 1006.9
20260504141136 57 293 4.0 7.0 0.00 0.00 0.00 50 1006.8
20260504140116 56 0 3.0 5.0 0.00 0.00 0.00 51 1007.0
20260504120116 50 225 1.0 2.0 0.00 0.00 0.00 67 1008.0
20260504110116 47 0.0 2.0 0.00 0.00 0.00 76 1008.3
20260504100136 43 0.0 0.0 0.00 0.00 0.00 83 1007.9
20260504090116 42 0.0 0.0 0.00 0.00 0.00 82 1007.8
20260504081116 42 0.0 0.0 0.00 0.00 0.00 76 1008.1
20260504080116 42 0.0 0.0 0.00 0.00 0.00 76 1008.2
20260504070116 41 0.0 0.0 0.00 0.00 0.00 84 1007.9
20260504060116 43 0.0 0.0 0.00 0.00 0.00 66 1008.2
20260504050136 41 0.0 0.0 0.00 0.00 0.00 68 1008.1
20260504045115 40 0.0 0.0 0.00 0.00 0.00 64 1008.1
20260504044116 40 0.0 0.0 0.00 0.00 0.00 66 1008.1
20260504043116 40 0.0 0.0 0.00 0.00 0.00 67 1008.1
20260504042116 40 0.0 0.0 0.00 0.00 0.00 68 1008.1
20260504041116 39 0.0 0.0 0.00 0.00 0.00 69 1008.0
20260504040116 39 0.0 0.0 0.00 0.00 0.00 68 1008.0
20260504035116 39 0.0 0.0 0.00 0.00 0.00 70 1008.0
20260504034117 39 0.0 0.0 0.00 0.00 0.00 71 1007.9
20260504033117 39 0.0 0.0 0.00 0.00 0.00 68 1007.8
20260504032116 39 0.0 0.0 0.00 0.00 0.00 74 1007.9
20260504031157 39 0.0 0.0 0.00 0.00 0.00 72 1007.8
20260504030117 39 0.0 0.0 0.00 0.00 0.00 70 1007.7
20260504025117 39 0.0 0.0 0.00 0.00 0.00 75 1007.8
20260504024157 39 0.0 0.0 0.00 0.00 0.00 75 1007.7
20260504023137 40 0.0 0.0 0.00 0.00 0.00 73 1007.8
20260504022137 40 0.0 0.0 0.00 0.00 0.00 71 1007.9
20260504021116 41 0.0 0.0 0.00 0.00 0.00 68 1007.8
20260504020117 41 0.0 0.0 0.00 0.00 0.00 64 1007.7
20260504015116 41 0.0 0.0 0.00 0.00 0.00 64 1007.7
20260504014137 41 0.0 0.0 0.00 0.00 0.00 65 1007.7
20260504013117 41 0.0 0.0 0.00 0.00 0.00 66 1007.5
20260504012117 41 0.0 0.0 0.00 0.00 0.00 66 1007.4
20260504011117 42 0.0 0.0 0.00 0.00 0.00 65 1007.3
20260504010117 42 0.0 0.0 0.00 0.00 0.00 63 1007.2
20260504005116 42 0.0 0.0 0.00 0.00 0.00 60 1007.1
20260504004116 43 0.0 0.0 0.00 0.00 0.00 62 1007.1
20260504003137 43 0.0 0.0 0.00 0.00 0.00 61 1007.1
20260504002117 44 0.0 0.0 0.00 0.00 0.00 59 1006.9